Miscellaneous Local Product
Issued by NWS Hastings, NE

Home | Current Version | Previous Version | Text Only | Print | Product List | Glossary Off
Versions: 1 2 3 4 5 6 7 8 9 10 11 12 13 14 15 16 17 18 19 20 21 22 23 24 25 26 27 28 29 30 31 32 33 34 35 36 37 38 39 40 41 42 43 44 45 46 47 48 49 50

000
AXUS43 KGID 232202
MISGRI

GID CWA HOURLY WEATHER ROUNDUP
NATIONAL WEATHER SERVICE HASTINGS NE
500 PM CDT SUN APR 23 2017

NOTE: "FAIR" INDICATES FEW OR NO CLOUDS BELOW 12,000 FEET WITH NO
SIGNIFICANT WEATHER AND/OR OBSTRUCTIONS TO VISIBILITY.

...SOUTH CENTRAL NEBRASKA...

CITY           SKY/WX    TMP DP  RH WIND       PRES   REMARKS
GRAND ISLAND   CLOUDY    71  25  17 S28G39    29.91F
HASTINGS       CLOUDY    69  24  18 S13G28    29.94F
KEARNEY        MOSUNNY   70  27  19 S29G36    29.90F
ORD            CLOUDY    70  25  18 S28G41    29.85F
YORK           MOSUNNY   72  23  16 S22G28    29.95F
AURORA         MOSUNNY   71  25  18 S21G35    29.92F
LEXINGTON      CLOUDY    69  22  17 S30G38    29.87F
HOLDREGE       CLOUDY    67  25  20 S25G36    29.90F
HEBRON         CLOUDY    70  30  22 S20G25    29.97F

...NEBRASKA PANHANDLE...

CITY           SKY/WX    TMP DP  RH WIND       PRES   REMARKS
CHADRON        CLOUDY    75  32  20 SW7       29.66F
ALLIANCE       CLOUDY    72  31  22 SW15G28   29.72F
SCOTTSBLUFF    CLOUDY    75  31  19 S8G20     29.71F
SIDNEY         CLOUDY    69  42  37 S22G29    29.77F

...WESTERN AND NORTH CENTRAL NEBRASKA...

CITY           SKY/WX    TMP DP  RH WIND       PRES   REMARKS
VALENTINE      MOSUNNY   75  29  18 S28G39    29.73F
AINSWORTH      SUNNY     70  31  24 S23G32    29.77F
ONEILL         SUNNY     72  19  13 S28G36    29.80F
BROKEN BOW     CLOUDY    71  23  16 S32G40    29.85F
IMPERIAL       CLOUDY    68  38  33 S23G33    29.82F
NORTH PLATTE   PTSUNNY   69  35  28 S23G32    29.81F
MCCOOK         CLOUDY    70  33  25 S24G37    29.84F

...EASTERN NEBRASKA...

CITY           SKY/WX    TMP DP  RH WIND       PRES   REMARKS
NORFOLK        SUNNY     72  22  15 S29G36    29.88F
SO SIOUX CITY  PTSUNNY   73  27  18 S21G31    29.91F
TEKAMAH        SUNNY     72  30  21 S25G31    29.94F
COLUMBUS       CLOUDY    72  27  18 S22G29    29.92F
ALBION         SUNNY     72  21  14 SW25G36   29.88F
OMAHA EPPLEY   PTSUNNY   73  26  17 S22G29    29.96F
OFFUTT AFB     SUNNY     72  29  20 SW15      29.96F
MILLARD        SUNNY     73  33  22 S10G16    29.96F
LINCOLN        SUNNY     72  30  21 S23G33    29.96F
NEBRASKA CITY  SUNNY     70  14  11 S16G22    29.99F
BEATRICE       SUNNY     69  32  24 S17G23    29.98F
FALLS CITY     SUNNY     69  33  26 S14G22    30.00F

...NORTHERN KANSAS...

CITY           SKY/WX    TMP DP  RH WIND       PRES   REMARKS
GOODLAND       CLOUDY    69  38  32 S25G40    29.84F
HILL CITY      CLOUDY    70  26  19 S18G31    29.92F
NORTON         CLEAR     68  21  17 S23G36    29.89F
PHILLIPSBURG   SUNNY     72  28  20 S20G30    29.93F
SMITH CENTER   SUNNY     68  30  24 S21G30    29.95F
RUSSELL        CLOUDY    69  34  27 S24G31    29.96F
CONCORDIA      MOSUNNY   65  38  36 S18G24    29.99F
SALINA         SUNNY     69  36  29 S14       30.02F
TOPEKA         SUNNY     70  32  24 VRB7      30.05F



USA.gov is the U.S. government's official web portal to all federal, state and local government web resources and services.